• In Germany
  • List of Countries
  • For 7 days
  • Water Temperature
  • Satellite Maps
  • Weather Map
  • Weather Widgets
  • user-avatar
    Login

    Hourly Weather Tskhaltubo

    Today, 16 December, Saturday

    Time Temperature Precipitation Wind Pressure Humidity
    00:00 +9°C° 0 mm 2 mps 748 mmHg 60%
    01:00 +9°C° 0 mm 2 mps 748 mmHg 60%
    02:00 +8°C° 0 mm 2 mps 748 mmHg 59%
    03:00 +8°C° 0 mm 2 mps 748 mmHg 59%
    04:00 +8°C° 0 mm 2 mps 748 mmHg 58%
    05:00 +8°C° 0 mm 2 mps 748 mmHg 57%
    06:00 +8°C° 0 mm 2 mps 748 mmHg 56%
    07:00 +9°C° 0 mm 2 mps 748 mmHg 55%
    08:00 +9°C° 0 mm 2 mps 748 mmHg 54%
    09:00 +10°C° 0 mm 2 mps 748 mmHg 52%
    10:00 +13°C° 0 mm 2 mps 747 mmHg 50%
    11:00 +15°C° 0 mm 2 mps 747 mmHg 47%
    12:00 +17°C° 0 mm 2 mps 746 mmHg 45%
    13:00 +17°C° 0 mm 2 mps 746 mmHg 47%
    14:00 +17°C° 0 mm 2 mps 746 mmHg 49%
    15:00 +16°C° 0 mm 2 mps 746 mmHg 51%
    16:00 +15°C° 0 mm 2 mps 746 mmHg 52%
    17:00 +14°C° 0 mm 2 mps 747 mmHg 52%
    18:00 +12°C° 0 mm 2 mps 747 mmHg 53%
    19:00 +12°C° 0 mm 2 mps 747 mmHg 51%
    20:00 +11°C° 0 mm 3 mps 747 mmHg 49%
    21:00 +10°C° 0 mm 3 mps 748 mmHg 47%
    22:00 +10°C° 0 mm 3 mps 748 mmHg 47%
    23:00 +10°C° 0 mm 3 mps 748 mmHg 46%

    Tomorrow, 17 December, Sunday

    Time Temperature Precipitation Wind Pressure Humidity
    00:00 +10°C° 0 mm 3 mps 748 mmHg 45%
    01:00 +10°C° 0 mm 3 mps 748 mmHg 45%
    02:00 +10°C° 0 mm 3 mps 748 mmHg 45%
    03:00 +10°C° 0 mm 3 mps 748 mmHg 46%
    04:00 +10°C° 0 mm 3 mps 748 mmHg 46%
    05:00 +9°C° 0 mm 3 mps 748 mmHg 46%
    06:00 +9°C° 0 mm 3 mps 748 mmHg 46%
    07:00 +10°C° 0 mm 2 mps 748 mmHg 46%
    08:00 +10°C° 0 mm 2 mps 748 mmHg 45%
    09:00 +12°C° 0 mm 2 mps 748 mmHg 45%
    10:00 +14°C° 0 mm 2 mps 747 mmHg 43%
    11:00 +15°C° 0 mm 2 mps 747 mmHg 40%
    12:00 +17°C° 0 mm 2 mps 746 mmHg 38%
    13:00 +17°C° 0 mm 2 mps 746 mmHg 40%
    14:00 +17°C° 0 mm 2 mps 746 mmHg 43%
    15:00 +18°C° 0 mm 1 mps 745 mmHg 45%
    16:00 +15°C° 0 mm 2 mps 746 mmHg 47%
    17:00 +14°C° 0 mm 2 mps 746 mmHg 50%
    18:00 +12°C° 0 mm 2 mps 747 mmHg 52%
    19:00 +12°C° 0 mm 2 mps 747 mmHg 52%
    20:00 +10°C° 0 mm 2 mps 747 mmHg 51%
    21:00 +10°C° 0 mm 2 mps 747 mmHg 51%
    22:00 +10°C° 0 mm 2 mps 747 mmHg 51%
    23:00 +10°C° 0 mm 3 mps 747 mmHg 50%

    Day after tomorrow, 18 December, Monday

    Time Temperature Precipitation Wind Pressure Humidity
    00:00 +10°C° 0 mm 3 mps 747 mmHg 50%
    01:00 +10°C° 0 mm 2 mps 747 mmHg 50%
    02:00 +10°C° 0 mm 2 mps 747 mmHg 50%
    03:00 +10°C° 0 mm 2 mps 747 mmHg 50%
    04:00 +10°C° 0 mm 2 mps 747 mmHg 51%
    05:00 +10°C° 0 mm 2 mps 747 mmHg 52%
    06:00 +10°C° 0 mm 2 mps 747 mmHg 52%
    07:00 +10°C° 0 mm 2 mps 747 mmHg 53%
    08:00 +10°C° 0 mm 2 mps 747 mmHg 54%
    09:00 +12°C° 0 mm 2 mps 747 mmHg 54%
    10:00 +13°C° 0 mm 2 mps 747 mmHg 52%
    11:00 +15°C° 0 mm 1 mps 746 mmHg 49%
    12:00 +16°C° 0 mm 1 mps 746 mmHg 46%
    13:00 +16°C° 0 mm 1 mps 746 mmHg 48%
    14:00 +16°C° 0 mm 1 mps 746 mmHg 49%
    15:00 +16°C° 0 mm 1 mps 745 mmHg 51%
    16:00 +15°C° 0 mm 1 mps 746 mmHg 54%
    17:00 +13°C° 0 mm 2 mps 746 mmHg 57%
    18:00 +12°C° 0 mm 2 mps 746 mmHg 60%
    19:00 +12°C° 0 mm 2 mps 746 mmHg 60%
    20:00 +12°C° 0 mm 2 mps 746 mmHg 60%
    21:00 +12°C° 0 mm 2 mps 746 mmHg 60%
    22:00 +10°C° 0 mm 2 mps 746 mmHg 60%
    23:00 +10°C° 0 mm 2 mps 746 mmHg 59%

    19 December, Tuesday

    Time Temperature Precipitation Wind Pressure Humidity
    00:00 +10°C° 0 mm 2 mps 746 mmHg 59%
    01:00 +10°C° 0 mm 2 mps 746 mmHg 60%
    02:00 +10°C° 0 mm 2 mps 746 mmHg 60%
    03:00 +10°C° 0 mm 2 mps 746 mmHg 61%
    04:00 +10°C° 0 mm 2 mps 746 mmHg 62%
    05:00 +10°C° 0 mm 2 mps 746 mmHg 62%
    06:00 +10°C° 0 mm 2 mps 746 mmHg 63%
    07:00 +10°C° 0.1 mm 2 mps 746 mmHg 63%
    08:00 +12°C° 0.1 mm 2 mps 746 mmHg 64%
    09:00 +12°C° 0.1 mm 2 mps 746 mmHg 64%
    10:00 +13°C° 0.1 mm 2 mps 746 mmHg 62%
    11:00 +14°C° 0.1 mm 2 mps 746 mmHg 60%
    12:00 +15°C° 0.1 mm 1 mps 746 mmHg 58%
    13:00 +15°C° 0.3 mm 1 mps 746 mmHg 61%
    14:00 +15°C° 0.3 mm 1 mps 746 mmHg 64%
    15:00 +14°C° 0.3 mm 1 mps 746 mmHg 67%
    16:00 +13°C° 0.6 mm 1 mps 747 mmHg 71%
    17:00 +12°C° 0.6 mm 1 mps 748 mmHg 76%
    18:00 +12°C° 0.6 mm 1 mps 748 mmHg 81%
    19:00 +11°C° 0.9 mm 1 mps 749 mmHg 82%
    20:00 +11°C° 0.9 mm 1 mps 749 mmHg 84%
    21:00 +10°C° 0.9 mm 0 mps 749 mmHg 86%
    22:00 +11°C° 0.3 mm 1 mps 749 mmHg 85%
    23:00 +10°C° 0.3 mm 1 mps 750 mmHg 85%

    20 December, Wednesday

    Time Temperature Precipitation Wind Pressure Humidity
    00:00 +10°C° 0.3 mm 1 mps 750 mmHg 84%
    01:00 +10°C° 0.1 mm 1 mps 750 mmHg 84%
    02:00 +10°C° 0.1 mm 1 mps 750 mmHg 83%
    03:00 +10°C° 0.1 mm 1 mps 750 mmHg 82%
    04:00 +10°C° 0.1 mm 1 mps 750 mmHg 81%
    05:00 +9°C° 0.1 mm 1 mps 750 mmHg 81%
    06:00 +9°C° 0.1 mm 1 mps 750 mmHg 80%
    07:00 +10°C° 0 mm 1 mps 750 mmHg 79%
    08:00 +10°C° 0 mm 1 mps 750 mmHg 77%
    09:00 +10°C° 0 mm 1 mps 750 mmHg 76%
    10:00 +11°C° 0 mm 1 mps 750 mmHg 73%
    11:00 +12°C° 0 mm 1 mps 750 mmHg 71%
    12:00 +13°C° 0 mm 1 mps 749 mmHg 68%
    13:00 +13°C° 0 mm 1 mps 749 mmHg 68%
    14:00 +13°C° 0 mm 1 mps 749 mmHg 69%
    15:00 +13°C° 0 mm 1 mps 749 mmHg 69%
    16:00 +13°C° 0 mm 1 mps 749 mmHg 72%
    17:00 +12°C° 0 mm 1 mps 749 mmHg 74%
    18:00 +10°C° 0 mm 2 mps 749 mmHg 77%
    19:00 +10°C° 0.1 mm 2 mps 749 mmHg 76%
    20:00 +9°C° 0.1 mm 2 mps 749 mmHg 74%
    21:00 +9°C° 0.1 mm 2 mps 749 mmHg 73%
    22:00 +9°C° 0.1 mm 2 mps 749 mmHg 73%
    23:00 +9°C° 0.1 mm 2 mps 749 mmHg 73%

    21 December, Thursday

    Time Temperature Precipitation Wind Pressure Humidity
    00:00 +9°C° 0.1 mm 2 mps 748 mmHg 73%
    01:00 +9°C° 0.1 mm 2 mps 748 mmHg 73%
    02:00 +9°C° 0.1 mm 2 mps 748 mmHg 73%
    03:00 +9°C° 0.1 mm 3 mps 747 mmHg 72%
    04:00 +9°C° 0.1 mm 3 mps 747 mmHg 72%
    05:00 +9°C° 0.1 mm 3 mps 746 mmHg 72%
    06:00 +9°C° 0.1 mm 3 mps 746 mmHg 71%
    07:00 +9°C° 0.3 mm 3 mps 746 mmHg 71%
    08:00 +9°C° 0.3 mm 2 mps 745 mmHg 72%
    09:00 +9°C° 0.3 mm 2 mps 745 mmHg 72%
    10:00 +10°C° 0.2 mm 2 mps 745 mmHg 70%
    11:00 +12°C° 0.2 mm 2 mps 744 mmHg 68%
    12:00 +13°C° 0.2 mm 2 mps 743 mmHg 66%
    13:00 +13°C° 0.2 mm 2 mps 743 mmHg 68%
    14:00 +13°C° 0.2 mm 2 mps 742 mmHg 69%
    15:00 +12°C° 0.2 mm 1 mps 742 mmHg 70%
    16:00 +12°C° 0.6 mm 1 mps 742 mmHg 74%
    17:00 +11°C° 0.6 mm 1 mps 742 mmHg 77%
    18:00 +10°C° 0.6 mm 1 mps 742 mmHg 81%
    19:00 +9°C° 2.3 mm 2 mps 742 mmHg 86%
    20:00 +8°C° 2.3 mm 2 mps 742 mmHg 90%
    21:00 +8°C° 2.3 mm 2 mps 742 mmHg 95%
    22:00 +7°C° 1.7 mm 2 mps 742 mmHg 95%
    23:00 +7°C° 1.7 mm 2 mps 742 mmHg 96%
    Show more

    XHprof extension not loaded